Wind_Speed
29 25 29 26 21 16 11 7 7 8 5 6 7 8 7 7 8 8 9 14 14 13 18 18 21 22 23 24 22 26 29 28
30 27 29 26 19 17 11 8 5 8 12 10 10 11 8 7 8 10 11 13 13 12 16 16 19 21 22 21 20 25 29 30
23 29 31 25 23 15 14 10 6 8 13 11 9 13 11 11 10 13 10 11 11 8 15 16 17 18 20 18 20 24 21 21
18 25 28 29 22 20 16 12 9 9 10 8 8 9 12 13 12 14 11 11 10 10 16 16 17 16 20 12 19 24 19 18
19 25 26 28 25 22 18 14 11 11 9 10 11 11 11 11 12 12 12 14 10 14 15 17 17 18 19 10 18 21 17 13
20 24 28 34 27 24 19 14 11 8 9 10 10 9 9 10 12 13 14 15 13 17 16 17 18 20 17 14 18 20 16 14
23 26 33 31 28 24 19 15 11 8 8 8 9 11 12 13 14 15 15 15 17 18 18 18 17 18 11 17 20 19 19 18
18 23 25 29 29 23 18 14 11 7 7 7 9 10 12 14 13 14 15 15 17 19 19 19 18 12 16 20 19 19 20 20
17 25 27 28 27 22 18 17 11 7 7 8 9 10 11 12 12 13 13 15 15 18 17 17 13 15 21 19 20 20 20 20
18 25 26 29 26 20 20 15 10 9 8 9 10 11 12 12 12 13 14 14 15 16 15 15 13 20 19 19 23 22 23 20
15 23 26 27 27 22 17 11 12 10 8 8 9 10 11 10 12 14 16 15 15 15 16 11 18 23 17 22 27 23 23 20
15 23 26 29 24 18 13 13 11 9 9 8 9 10 11 11 13 14 15 16 14 15 13 13 23 19 16 27 27 22 22 21
19 24 24 26 22 17 14 13 10 8 7 9 10 11 11 12 14 15 16 16 14 16 10 17 22 17 18 29 28 24 22 22
16 19 19 21 21 15 16 13 10 8 10 9 10 11 10 12 14 15 15 15 14 15 10 19 20 14 23 28 26 25 22 22
12 13 18 21 17 19 15 12 9 9 10 11 10 10 11 13 14 14 15 14 14 13 12 18 16 12 23 26 25 25 25 19
12 11 17 18 19 18 15 11 9 10 10 10 9 10 12 14 15 15 15 14 14 10 15 15 16 18 23 26 23 24 22 16
13 18 19 18 20 19 15 11 10 10 10 11 9 11 13 15 15 15 16 15 16 10 15 15 16 21 25 25 23 22 20 17
14 16 17 18 21 19 16 11 10 12 13 11 11 12 15 14 15 16 16 16 16 12 16 15 15 22 26 26 23 22 20 18
14 16 21 21 23 20 17 13 13 13 12 11 11 13 14 14 16 19 18 17 19 14 15 14 17 22 26 26 25 23 20 18
Wind_Direction
143 147 138 130 123 116 108 78 57 40 53 41 38 31 31 29 26 35 29 29 19 20 14 13 10 7 9 7 6 4 3 356
151 147 136 127 123 124 119 96 67 50 43 30 26 7 5 53 38 50 22 21 16 9 15 11 10 10 8 8 10 11 11 5
152 134 132 132 133 124 119 112 78 48 41 40 24 29 67 51 57 25 16 9 11 23 20 13 10 10 5 10 14 14 13 9
151 140 135 134 130 129 117 104 72 52 43 36 33 36 32 29 29 15 18 11 15 36 26 17 11 11 3 22 13 12 8 7
145 140 137 141 134 127 120 110 86 55 39 43 40 34 23 28 26 20 26 24 54 35 27 23 16 8 2 13 5 6 360 350
144 144 143 136 130 123 120 107 87 67 42 42 40 30 23 24 31 23 18 23 27 23 14 10 9 2 356 0 358 359 352 329
135 138 130 129 127 123 120 103 89 74 45 49 39 24 31 37 26 19 20 19 16 14 9 6 2 359 26 4 356 351 345 323
135 125 124 125 125 122 115 106 103 74 55 53 44 34 31 29 20 18 20 16 14 14 8 5 2 17 360 357 355 349 347 346
125 124 125 125 124 121 119 118 100 75 66 58 51 38 29 22 22 21 18 12 5 1 2 2 12 1 354 356 354 348 343 338
119 121 120 121 119 116 120 110 96 91 71 62 46 36 31 23 21 15 12 6 5 0 5 3 5 353 356 357 351 346 341 340
112 115 115 116 118 110 106 100 106 84 70 50 42 34 35 27 20 15 10 6 2 4 5 4 357 355 360 355 350 344 341 344
114 110 114 118 117 115 111 114 92 86 75 65 49 36 33 25 21 15 12 4 4 4 0 359 0 1 355 353 350 341 346 343
112 118 120 122 123 123 114 106 96 87 84 78 53 40 27 23 19 13 6 4 6 1 359 359 3 358 351 352 351 348 345 343
115 119 122 124 130 131 125 111 105 96 101 70 51 39 28 23 17 10 6 3 2 3 12 6 2 356 354 355 348 350 347 344
124 127 123 129 135 127 114 105 97 94 83 63 49 36 32 22 18 11 6 4 4 3 15 11 6 354 358 353 353 355 355 355
139 129 127 131 123 120 117 108 108 96 77 65 46 39 29 22 20 14 9 6 3 17 23 15 6 5 359 357 356 5 0 16
129 130 136 136 130 129 122 111 108 96 88 70 44 39 33 22 19 14 11 7 9 57 28 17 13 12 0 2 3 10 9 12
135 141 143 134 129 130 119 115 105 95 81 66 46 44 34 19 17 16 10 10 24 36 23 23 18 15 5 6 6 14 13 5
141 129 115 119 123 119 121 114 106 89 73 64 50 41 34 20 19 18 12 32 31 23 25 34 25 17 8 9 9 15 13 8
Height
829 835 840 845 850 855 860 863 864 864 863 862 861 861 860 858 857 855 854 853 852 850 848 846 842 839 836 832 829 827 824 818
826 832 837 843 849 853 859 862 864 864 863 862 862 862 860 859 857 856 854 853 851 849 847 845 842 839 837 834 830 828 823 819
825 830 836 841 848 853 857 861 862 864 863 863 863 861 860 860 858 857 854 853 851 849 847 845 842 840 838 835 830 828 826 825
820 827 833 840 846 852 856 860 862 864 864 863 862 860 860 859 858 857 856 853 851 849 847 845 843 840 838 835 833 830 827 827
815 825 833 838 845 850 855 859 862 864 864 863 863 862 862 861 859 857 856 854 851 849 847 845 843 841 838 835 833 831 829 827
814 823 830 837 844 849 854 859 862 865 865 865 864 863 862 860 859 857 857 855 852 849 847 845 843 841 839 836 833 831 829 827
816 825 832 840 845 850 855 859 863 865 866 866 865 864 863 862 861 859 857 854 853 850 848 845 844 841 838 836 833 830 828 825
816 827 835 841 847 852 856 860 864 866 867 867 866 865 864 863 862 860 858 855 853 850 848 846 844 840 838 835 832 829 826 823
819 829 836 843 848 853 856 861 864 867 868 868 867 866 866 865 864 861 858 856 854 851 849 847 843 840 838 834 831 828 825 822
823 832 838 844 849 854 857 861 865 866 868 869 869 868 867 867 866 862 859 857 854 852 849 846 842 840 837 834 830 827 823 819
830 836 842 847 851 856 860 863 866 868 868 870 870 869 865 866 865 864 861 858 855 852 849 846 843 839 836 833 829 824 820 817
832 840 845 849 854 857 861 864 867 869 868 869 871 870 867 867 864 861 859 858 856 852 849 846 842 839 836 833 828 822 818 815
837 843 847 851 855 859 863 865 867 869 869 870 871 869 870 867 864 862 862 858 856 852 848 846 841 840 837 832 826 821 817 812
841 846 850 853 857 860 863 864 867 868 868 868 869 868 870 866 864 862 860 857 856 852 848 844 842 840 836 831 825 820 815 810
843 847 850 854 857 862 864 867 870 871 870 870 870 869 870 867 863 862 859 857 855 851 848 844 842 840 836 830 824 818 813 809
841 847 851 854 858 863 866 869 870 870 872 871 873 871 869 867 864 862 859 857 854 850 848 844 843 840 836 829 823 818 813 809
841 846 850 853 858 862 866 870 871 870 871 871 874 872 870 868 865 862 859 857 854 851 848 845 843 840 835 829 823 818 814 810
844 846 849 854 856 861 866 870 872 873 872 874 875 873 869 870 866 862 861 858 854 852 849 846 843 841 835 829 823 818 814 811
845 848 852 857 860 863 867 870 873 875 876 874 875 874 871 871 868 864 862 859 855 853 850 847 845 841 835 829 824 818 814 811